Flag for Panama Weather past 2 weeks in Panama, Panama

Now
82 °F

Light rain. Partly sunny.


Feels Like: 89 °F
Forecast: 77 / 86 °F
Wind: 3 mph from Northeast

Location: Marcos A. Gelabert

Current Time: Sep 17, 2014 at 1:19:00 PM

Latest Report: Sep 17, 2014 at 12:00 PM


Visibility: 6 mi

Pressure: 29.92 "Hg

Humidity: 79%

Dew point: 75 °F

Location of PanamaLocation

Historic Weather in Panama — Graph

°F

Panama temperature yesterday

Maximum temperature yesterday: 90 °F (at 1:00 PM)
Minimum temperature yesterday: 77 °F (at 6:00 AM)
Average temperature yesterday: 80 °F

Past Weeks' High & Low Weather Summary

 TemperatureHumidityPressure
High91 °F (Sep 3, 2:00 PM)100% (Sep 4, 7:00 AM)29.98 "Hg (Sep 4, 7:00 AM)
Low72 °F (Sep 8, 8:00 AM)56% (Sep 5, 1:00 PM)29.74 "Hg (Sep 6, 4:00 PM)
Average81 °F84%29.84 "Hg
* Reported Sep 2 1:00 PM — Sep 17 12:00 Noon, Panama, Weather by CustomWeather, © 2014

Note: Actual official high and low records may vary slightly from our data, if they occured in-between our weather recording intervals... More about our weather records

Advertising

Panama weather history for previous 24 hours

 ConditionsComfort  
Time TempWeatherWind HumidityBarometerVisibility
12:00 PM
Sep 17
82 °FLight rain. Partly sunny.3 mph79%29.92 "Hg6 mi
11:00 AM84 °FPartly sunny.3 mph74%29.95 "HgN/A
10:00 AM86 °FScattered clouds.5 mph75%29.95 "HgN/A
9:00 AM82 °FPassing clouds.5 mph84%29.95 "HgN/A
8:00 AM81 °FPassing clouds.2 mph89%29.92 "HgN/A
7:00 AM77 °FScattered clouds.No wind94%29.92 "Hg5 mi
6:00 AM77 °FPassing clouds.1 mph94%29.89 "HgN/A
10:00 PM
Sep 16
77 °FPassing clouds.3 mph94%29.89 "HgN/A
8:00 PM77 °FPassing clouds.3 mph94%29.86 "HgN/A
7:00 PM77 °FPassing clouds.3 mph94%29.89 "HgN/A
6:00 PM79 °FPartly sunny.5 mph89%29.86 "HgN/A
5:00 PM79 °FPartly sunny.7 mph89%29.83 "HgN/A
4:00 PM79 °FBroken clouds.3 mph94%29.86 "HgN/A
3:00 PM79 °FWarm.6 mph94%29.86 "HgN/A
2:00 PM81 °FThunderstorms. Broken clouds.17 mph84%29.86 "Hg1 mi
1:00 PM90 °FScattered clouds.12 mph63%29.89 "HgN/A
Weather by CustomWeather, © 2014

See weather overviewHow to use our weather pages